Estación de San Diego
Ultimos registro cada 15 minutos 22
| N° | Estación | Fecha / Hora | Temperatura | Humedad | Lluvia | Velocidad | Dirección | Radiación | Presion |
| 22 | San Diego | 04-05-2026 05:15 | 3,3 | 91 | 0 | 0 | 296 | 0 | 1014,9 |
| 21 | San Diego | 04-05-2026 05:00 | 3,2 | 90 | 0 | 0 | 297 | 0 | 1015 |
| 20 | San Diego | 04-05-2026 04:45 | 3,4 | 90 | 0 | 0 | 341 | 0 | 1015 |
| 19 | San Diego | 04-05-2026 04:30 | 3,5 | 90 | 0 | 0 | 341 | 0 | 1014,9 |
| 18 | San Diego | 04-05-2026 04:15 | 3,7 | 89 | 0 | 0 | 341 | 0 | 1014,9 |
| 17 | San Diego | 04-05-2026 04:00 | 3,9 | 89 | 0 | 0 | 341 | 0 | 1014,8 |
| 16 | San Diego | 04-05-2026 03:45 | 4,1 | 88 | 0 | 0 | 341 | 0 | 1015 |
| 15 | San Diego | 04-05-2026 03:30 | 4,5 | 88 | 0 | 0 | 339 | 0 | 1015,2 |
| 14 | San Diego | 04-05-2026 03:15 | 4,6 | 88 | 0 | 0 | 297 | 0 | 1015,3 |
| 13 | San Diego | 04-05-2026 03:00 | 4,5 | 88 | 0 | 0 | 297 | 0 | 1015,5 |
| 12 | San Diego | 04-05-2026 02:45 | 4,8 | 88 | 0 | 0,4 | 306 | 0 | 1015,6 |
| 11 | San Diego | 04-05-2026 02:30 | 4,6 | 89 | 0 | 0 | 274 | 0 | 1015,8 |
| 10 | San Diego | 04-05-2026 02:15 | 4,3 | 88 | 0 | 0 | 314 | 0 | 1015,8 |
| 9 | San Diego | 04-05-2026 02:00 | 4,4 | 88 | 0 | 0 | 314 | 0 | 1016 |
| 8 | San Diego | 04-05-2026 01:45 | 4,4 | 88 | 0 | 0 | 314 | 0 | 1015,9 |
| 7 | San Diego | 04-05-2026 01:30 | 4,7 | 88 | 0 | 0 | 315 | 0 | 1016 |
| 6 | San Diego | 04-05-2026 01:15 | 4,6 | 87 | 0 | 0 | 315 | 0 | 1016,2 |
| 5 | San Diego | 04-05-2026 01:00 | 4,8 | 87 | 0 | 0 | 315 | 0 | 1016,4 |
| 4 | San Diego | 04-05-2026 00:45 | 5,1 | 87 | 0 | 0 | 315 | 0 | 1016,6 |
| 3 | San Diego | 04-05-2026 00:30 | 5,6 | 87 | 0 | 0 | 320 | 0 | 1016,9 |
| 2 | San Diego | 04-05-2026 00:15 | 5,8 | 85 | 0 | 0 | 320 | 0 | 1016,9 |
| 1 | San Diego | 04-05-2026 00:00 | 6,2 | 84 | 0 | 0 | 320 | 0 | 1016,7 |